Terug naar catalogus

CZ-4 DEB

ActiefSSO
NORAD 35330·DEBRIS·🇨🇳 China

Gelanceerd Oct 14, 1999 vanaf Taiyuan Satellite Launch Center

Loading…

Volgende Passages (komende 24 uur)

TLE

VersSource: Space-Track

Epoch: Sep 13, 2026, 09:02 UTC

1 35330U 99057SJ  26256.37695518  .00000414  00000-0  12971-3 0  9991
2 35330  98.6366 308.6803 0081638 112.6613 248.3236 14.43959551233369

Volg CZ-4 DEB in realtime met AllMySat

Download on the App Store